{"data":{"norad_id":66658,"epoch":"2026-09-20T20:46:58.773792Z","epoch_age_seconds":89322,"freshness":"FRESH","line1":"1 66658U 25274J   26263.86595803  .00002061  00000+0  19444-3 0  9997","line2":"2 66658  97.7470 192.0650 0013833  60.7891 299.4711 14.94798620 44527","mean_motion":14.9479862,"eccentricity":0.0013833,"inclination_deg":97.747,"raan_deg":192.065,"arg_perigee_deg":60.7891,"mean_anomaly_deg":299.4711,"bstar":0.00019444,"rev_number":4452,"period_min":96.334046655729,"perigee_km":573.36854800255,"apogee_km":592.62722377785,"semimajor_km":6961.1348858902,"source":"CELESTRAK","updated_at":"2026-09-21T09:00:16.117152Z"}}